Location: Bismarck
(46.7731°N, 100.8200°W)
Time: 22:28:36
(UTC-06:00)

ISS - Pass Details

Date: 25 November 2017
Orbit: 403 x 407 km, 51.6° (Epoch: 12 December)

Event Time Altitude Azimuth Distance (km) Brightness Sun altitude
Rises 03:13:57 0° 285° (WNW) 2,324 - -48.0°
Reaches altitude 10° 03:16:40 10° 261° (W) 1,458 - -47.5°
Maximum altitude 03:18:36 15° 225° (SW) 1,196 - -47.2°
Drops below altitude 10° 03:20:32 10° 188° (S) 1,451 - -46.9°
Sets 03:23:14 0° 164° (SSE) 2,304 - -46.5°
